EW5562 Agios Dimitrios Viotias GR current weather conditions

sailwx.info

Wind from 031

Air temperature 7.8° C
Dewpoint 4.7° C

Last reported at 2020-Jan-26 09:02 UTC.
Time now 2020-Jan-26 09:41 UTC

Location: N 38°27' E 022°60'.
View on Google Maps.

See reports from other nearby stations

  
Tides and Currents Weather Stations Pressure Air Temp Water Temp Dewpoint Dewpoint Depression Visibility Wind Speed Wind Dir Waves Ship Positions
date/time (UTC)wind fromknots sea level pressurealtimeterstation pressurevisibilityair tempwater tempwave heightnotes
2020-Jan-26 09:02 031 7.8
2020-Jan-26 08:52 031 7.8
2020-Jan-26 08:42 031 7.2
2020-Jan-26 08:32 031 7.2
2020-Jan-26 08:22 031 7.2
2020-Jan-26 08:12 254 6.7
2020-Jan-26 08:02 254 6.1
2020-Jan-26 07:52 254 5.6
2020-Jan-26 07:42 300 5.6
2020-Jan-26 07:32 300 5.6
2020-Jan-26 07:22 300 0 gusting 1 5.6
2020-Jan-26 07:12 300 0 gusting 1 5.0
2020-Jan-26 07:07 300 0 gusting 1 4.4
2020-Jan-26 06:52 300 0 gusting 1 4.4
2020-Jan-26 06:43 300 0 gusting 2 3.9
2020-Jan-26 06:32 299 0 gusting 0 3.9
2020-Jan-26 06:22 299 4.4
2020-Jan-26 06:12 299 3.3
2020-Jan-26 06:02 299 3.3
2020-Jan-26 05:57 299 0 gusting 1 3.9
2020-Jan-26 05:47 299 3.9
2020-Jan-26 05:32 299 3.9
2020-Jan-26 05:22 299 3.3
2020-Jan-26 05:17 299 3.3
2020-Jan-26 05:02 299 3.3
2020-Jan-26 04:52 299 1 gusting 2 3.3
2020-Jan-26 04:42 299 0 gusting 2 3.3
2020-Jan-26 04:32 296 0 gusting 3 3.3
2020-Jan-26 04:22 288 1 gusting 2 3.3
2020-Jan-26 04:12 320 0 gusting 2 3.3
2020-Jan-26 04:02 344 3.3
2020-Jan-26 03:52 330 0 gusting 1 3.9
2020-Jan-26 03:42 330 3.9
2020-Jan-26 03:32 330 3.9
2020-Jan-26 03:22 330 4.4
2020-Jan-26 03:12 330 0 gusting 1 5.0
2020-Jan-26 03:02 330 0 gusting 1 5.0
2020-Jan-26 02:52 330 0 gusting 2 4.4
2020-Jan-26 02:42 330 4.4
2020-Jan-26 02:32 330 4.4
2020-Jan-26 02:22 330 4.4
2020-Jan-26 02:12 330 4.4
2020-Jan-26 02:02 330 4.4
2020-Jan-26 01:52 330 0 gusting 3 4.4
2020-Jan-26 01:42 347 1 gusting 4 4.4
2020-Jan-26 01:32 357 3 gusting 4 4.4
2020-Jan-26 01:22 358 3 gusting 4 4.4
2020-Jan-26 01:12 337 2 gusting 3 4.4
2020-Jan-26 01:02 316 2 gusting 4 4.4
2020-Jan-26 00:52 343 1 gusting 3 3.9
2020-Jan-26 00:42 228 4.4
2020-Jan-26 00:32 228 3 gusting 3 4.4
2020-Jan-26 00:22 183 1 gusting 3 5.0
2020-Jan-26 00:12 159 1 gusting 2 5.0
2020-Jan-26 00:02 152 5.0
2020-Jan-25 23:52 5.6
2020-Jan-25 23:42 5.6
2020-Jan-25 23:32 5.0
2020-Jan-25 23:22 5.0
2020-Jan-25 23:12 285 0 gusting 0 5.0
2020-Jan-25 23:02 283 5.0
2020-Jan-25 22:52 283 5.0
2020-Jan-25 22:42 283 0 gusting 1 5.6
2020-Jan-25 22:32 298 5.6
2020-Jan-25 22:22 306 1 gusting 4 6.1
2020-Jan-25 22:12 293 3 gusting 4 5.6
2020-Jan-25 22:02 327 1 gusting 2 6.1
2020-Jan-25 21:52 327 0 gusting 2 6.1
2020-Jan-25 21:42 329 0 gusting 2 6.1
2020-Jan-25 21:32 329 1 gusting 3 5.6
2020-Jan-25 21:22 333 3 gusting 3 6.7
2020-Jan-25 21:12 329 2 gusting 3 6.7
2020-Jan-25 21:02 288 1 gusting 4 5.6
2020-Jan-25 20:52 226 3 gusting 4 5.6
2020-Jan-25 20:42 272 7.8
2020-Jan-25 20:32 272 0 gusting 3 7.2
2020-Jan-25 20:22 272 2 gusting 3 6.7
2020-Jan-25 20:12 305 1 gusting 3 6.7
2020-Jan-25 20:02 323 2 gusting 3 6.7
2020-Jan-25 19:52 331 6.7
2020-Jan-25 19:42 331 7.2
2020-Jan-25 19:32 331 7.2
2020-Jan-25 19:22 331 7.2
2020-Jan-25 19:12 331 0 gusting 3 8.3
2020-Jan-25 19:02 331 7.8
2020-Jan-25 18:52 334 8.3
2020-Jan-25 18:42 268 8.9
2020-Jan-25 18:32 358 9.4
2020-Jan-25 18:22 358 8.9
2020-Jan-25 18:12 358 0 gusting 2 8.9
2020-Jan-25 18:02 299 10.0
2020-Jan-25 17:52 293 10.6
2020-Jan-25 17:42 295 10.0
2020-Jan-25 17:32 295 10.0
2020-Jan-25 17:22 193 0 gusting 1 10.6
2020-Jan-25 17:12 289 11.7
2020-Jan-25 17:02 292 12.2
2020-Jan-25 16:52 268 0 gusting 2 11.7
2020-Jan-25 16:42 223 12.2
2020-Jan-25 16:32 213 1 gusting 3 12.2
2020-Jan-25 16:22 061 12.8
2020-Jan-25 16:12 061 13.3
2020-Jan-25 16:02 061 13.3
2020-Jan-25 15:52 061 13.3
2020-Jan-25 15:42 059 0 gusting 2 13.9
2020-Jan-25 15:32 261 13.3
2020-Jan-25 15:22 261 0 gusting 1 13.9
2020-Jan-25 15:12 262 0 gusting 1 13.9
2020-Jan-25 15:02 199 1 gusting 1 14.4
2020-Jan-25 14:52 197 14.4
2020-Jan-25 14:42 173 14.4
2020-Jan-25 14:32 173 0 gusting 1 14.4
2020-Jan-25 14:22 173 0 gusting 1 14.4
2020-Jan-25 14:12 172 1 gusting 2 14.4
2020-Jan-25 14:02 123 0 gusting 2 14.4
2020-Jan-25 13:52 121 1 gusting 3 14.4
2020-Jan-25 13:42 134 1 gusting 4 14.4
2020-Jan-25 13:32 096 1 gusting 4 14.4
2020-Jan-25 13:22 103 0 gusting 5 14.4
2020-Jan-25 13:12 080 2 gusting 3 13.9
2020-Jan-25 13:02 102 1 gusting 3 13.9
2020-Jan-25 12:52 133 2 gusting 5 13.3
2020-Jan-25 12:42 071 2 gusting 4 13.3
2020-Jan-25 12:32 096 1 gusting 5 13.3
2020-Jan-25 12:22 149 2 gusting 5 13.3
2020-Jan-25 12:12 111 0 gusting 5 12.8
2020-Jan-25 12:02 120 0 gusting 4 12.8
2020-Jan-25 11:52 069 1 gusting 3 12.8
2020-Jan-25 11:42 100 0 gusting 2 12.2
2020-Jan-25 11:32 117 1 gusting 5 11.7
2020-Jan-25 11:22 103 11.7
2020-Jan-25 11:12 096 0 gusting 2 11.7
2020-Jan-25 11:02 073 1 gusting 4 11.1
2020-Jan-25 10:52 082 11.1
2020-Jan-25 10:42 065 1 gusting 3 10.6
2020-Jan-25 10:32 089 0 gusting 3 10.0
2020-Jan-25 10:22 055 10.0
2020-Jan-25 10:12 276 9.4
2020-Jan-25 10:02 274 8.9
2020-Jan-25 09:52 096 8.3
2020-Jan-25 09:42 092 8.3
2020-Jan-25 09:32 124 7.2
2020-Jan-25 09:22 319 7.2
2020-Jan-25 09:12 317 6.7
2020-Jan-25 09:02 6.1
2020-Jan-25 08:52 259 5.6
2020-Jan-25 08:42 259 5.0
2020-Jan-25 08:32 257 4.4
2020-Jan-25 08:22 257 3.9
2020-Jan-25 08:12 159 3.3
2020-Jan-25 08:02 159 2.8
2020-Jan-25 07:52 159 2.2
2020-Jan-25 07:42 185 1.7
2020-Jan-25 07:32 227 0.6
2020-Jan-25 07:22 245 0.6
2020-Jan-25 07:12 313 -0.0
2020-Jan-25 07:02 313 -0.0
2020-Jan-25 06:52 312 -0.6
2020-Jan-25 06:42 312 -0.6
2020-Jan-25 06:32 312 -1.1
2020-Jan-25 06:22 312 -1.1
2020-Jan-25 06:12 292 -0.6
2020-Jan-25 06:02 290 -1.7
2020-Jan-25 05:52 290 -1.7
2020-Jan-25 05:42 011 -2.2
2020-Jan-25 05:32 214 -2.2
2020-Jan-25 05:22 214 -2.2
2020-Jan-25 05:12 250 -2.2
2020-Jan-25 05:02 296 -2.2
2020-Jan-25 04:52 251 -1.1
2020-Jan-25 04:32 320 -1.1
2020-Jan-25 04:22 321 -1.1
2020-Jan-25 04:12 293 -1.7
2020-Jan-25 04:02 314 -1.7
2020-Jan-25 03:52 237 -1.7
2020-Jan-25 03:42 293 -2.2
2020-Jan-25 03:32 243 -2.2
2020-Jan-25 03:22 258 -1.7
2020-Jan-25 03:12 313 -1.7
2020-Jan-25 03:02 334 -0.6
2020-Jan-25 02:52 307 -0.6
2020-Jan-25 02:42 306 -1.1
2020-Jan-25 02:32 343 0 gusting 1 -0.6
2020-Jan-25 02:22 333 -0.6
2020-Jan-25 02:12 316 -0.6
2020-Jan-25 02:02 303 -0.6
2020-Jan-25 01:52 303 -0.6
2020-Jan-25 01:42 261 -0.6
2020-Jan-25 01:32 321 -0.6
2020-Jan-25 01:22 266 -0.6
2020-Jan-25 01:12 266 -0.6
2020-Jan-25 01:02 278 -0.6
2020-Jan-25 00:52 312 -0.6
2020-Jan-25 00:42 310 -0.0
2020-Jan-25 00:32 309 0.6
2020-Jan-25 00:22 340 0.6
2020-Jan-25 00:12 330 0.6
2020-Jan-25 00:02 316 3 gusting 4 0.6
2020-Jan-24 23:52 299 0 gusting 2 0.6
2020-Jan-24 23:42 324 0.6
2020-Jan-24 23:32 336 1.1
2020-Jan-24 23:22 265 1.7
2020-Jan-24 23:12 298 1.1
2020-Jan-24 23:02 298 1.1
2020-Jan-24 22:52 293 1.1
2020-Jan-24 22:42 295 1.7
2020-Jan-24 22:32 274 0 gusting 3 1.7
2020-Jan-24 22:22 306 0 gusting 1 1.1
2020-Jan-24 22:12 309 1.7
2020-Jan-24 22:02 336 1.7
2020-Jan-24 21:52 336 1.7
2020-Jan-24 21:42 336 2.2
2020-Jan-24 21:32 336 2.2
2020-Jan-24 21:22 312 0 gusting 3 2.8
2020-Jan-24 21:12 302 1 gusting 3 2.2
2020-Jan-24 21:02 314 0 gusting 3 2.2
2020-Jan-24 20:52 329 1 gusting 2 2.2
2020-Jan-24 20:42 305 2.2
2020-Jan-24 20:32 330 1.7
2020-Jan-24 20:22 257 2.2
2020-Jan-24 20:12 255 3.3
2020-Jan-24 20:02 255 3.9
2020-Jan-24 19:52 257 0 gusting 1 2.8
2020-Jan-24 19:42 347 2.2
2020-Jan-24 19:32 347 3.3
2020-Jan-24 19:22 347 3.3
2020-Jan-24 19:12 347 0 gusting 1 4.4
2020-Jan-24 19:02 347 2 gusting 4 4.4
2020-Jan-24 18:52 4.4
2020-Jan-24 18:42 358 0 gusting 3 5.6
2020-Jan-24 18:32 357 2 gusting 3 5.0
2020-Jan-24 18:22 003 0 gusting 1 5.6
2020-Jan-24 18:02 018 5.6
2020-Jan-24 17:52 018 5.6
2020-Jan-24 17:42 075 6.1
2020-Jan-24 17:32 069 0 gusting 4 6.7
2020-Jan-24 17:22 075 1 gusting 3 6.7
2020-Jan-24 17:12 063 6.7
2020-Jan-24 17:02 058 7.2
2020-Jan-24 16:52 212 7.2
2020-Jan-24 16:42 212 7.2
2020-Jan-24 16:32 213 7.8
2020-Jan-24 16:22 213 8.9
2020-Jan-24 16:12 237 3 gusting 4 9.4
2020-Jan-24 16:02 076 1 gusting 2 10.6
2020-Jan-24 15:52 076 1 gusting 3 10.6
2020-Jan-24 15:42 076 1 gusting 2 10.6
2020-Jan-24 15:32 076 1 gusting 3 11.1
2020-Jan-24 15:22 085 1 gusting 4 11.1
2020-Jan-24 15:12 097 2 gusting 5 11.7
2020-Jan-24 15:02 085 3 gusting 6 11.7
2020-Jan-24 14:52 083 2 gusting 4 11.7
2020-Jan-24 14:42 097 2 gusting 4 11.7
2020-Jan-24 14:32 092 3 gusting 5 12.2
2020-Jan-24 14:22 085 3 gusting 6 11.7
2020-Jan-24 14:12 144 0 gusting 5 11.7
2020-Jan-24 14:02 107 4 gusting 5 12.2
2020-Jan-24 13:52 171 1 gusting 3 11.7
2020-Jan-24 13:42 075 1 gusting 4 12.2
2020-Jan-24 13:32 052 1 gusting 4 11.7
2020-Jan-24 13:22 059 2 gusting 4 12.2
2020-Jan-24 13:12 182 3 gusting 5 12.2
2020-Jan-24 13:02 172 11.7
2020-Jan-24 12:52 173 0 gusting 4 11.7
2020-Jan-24 12:42 080 1 gusting 5 11.7
2020-Jan-24 12:32 109 1 gusting 4 11.7
2020-Jan-24 12:22 127 2 gusting 6 11.7
2020-Jan-24 12:12 162 1 gusting 6 11.1
2020-Jan-24 12:02 113 1 gusting 5 11.7
2020-Jan-24 11:52 011 2 gusting 5 11.1
2020-Jan-24 11:42 075 2 gusting 6 11.1
2020-Jan-24 11:32 107 2 gusting 6 11.1
2020-Jan-24 11:22 085 0 gusting 5 10.6
2020-Jan-24 11:12 062 0 gusting 5 10.6
2020-Jan-24 11:02 083 10.6
2020-Jan-24 10:52 102 3 gusting 5 10.0
2020-Jan-24 10:42 107 1 gusting 5 10.0
2020-Jan-24 10:32 097 10.0
2020-Jan-24 10:22 073 9.4
2020-Jan-24 10:12 071 0 gusting 3 9.4
2020-Jan-24 10:02 071 3 gusting 4 9.4
2020-Jan-24 09:52 092 8.9
2020-Jan-24 09:42 080 8.9
2020-Jan-24 09:32 066 8.3
2020-Jan-24 09:22 309 7.8
2020-Jan-24 09:12 066 7.8
2020-Jan-24 09:02 066 7.2